Location: Sungai Bunut
(2.6333°N, 113.7333°E)
Time: 02:59:38
(UTC+00:00)

S-56A Canister/Altair - Pass Details

Date: 04 December 2023
Orbit: 640 x 2488 km, 38.9° (Epoch: 24 February)

Event Time Altitude Azimuth Distance (km) Brightness Sun altitude
Rises 23:51:01 0° 219° (SW) 5,150 11.6 21.0°
Reaches altitude 10° 23:55:02 10° 214° (SW) 3,851 11.1 22.0°
Maximum altitude 00:03:59 48° 143° (SE) 1,511 10.2 24.0°
Drops below altitude 10° 00:09:59 10° 70° (ENE) 2,608 11.0 25.3°
Sets 00:12:13 0° 64° (ENE) 3,379 11.3 25.8°
